Overview Statistics Trail Chart Weather Telemetry Raw packets
 

This is the latest recevied weather packets stored in our database for station/object DF7ER-12. If no packets are shown the sender has not sent any weather packets the latest 10 day(s).

<< 32 33 34 35 36 37 38 >>
Time Temp. Humidity Pressure Rain* Wind** Luminosity Snow
1788452180 23.33° C 90% 1003 hPa - - - -
1788451880 23.33° C 90% 1003 hPa - - - -
1788451580 23.33° C 89% 1002.8 hPa - - - -
1788451280 23.89° C 88% 1002.8 hPa - - - -
1788450773 23.33° C 90% 1002.9 hPa - - - -
1788450473 23.33° C 90% 1003 hPa - - - -
1788450173 23.33° C 93% 1002.9 hPa - - - -
1788449873 23.33° C 92% 1003 hPa - - - -
1788449573 23.33° C 93% 1003.1 hPa - - - -
1788449273 23.33° C 94% 1003.1 hPa - - - -
1788448973 23.33° C 92% 1003.1 hPa - - - -
1788448673 23.33° C 94% 1003.1 hPa - - - -
1788448373 23.33° C 96% 1003.3 hPa - - - -
1788448073 23.33° C 97% 1003.5 hPa - - - -
1788447773 23.33° C 96% 1003.4 hPa - - - -
1788447473 22.78° C 99% 1003.5 hPa - - - -
1788447173 23.33° C 97% 1003.5 hPa - - - -
1788446873 22.78° C 97% 1003.5 hPa - - - -
1788446573 23.33° C 98% 1003.7 hPa - - - -
1788446273 22.78° C 98% 1003.6 hPa - - - -
1788445973 22.78° C 98% 1003.6 hPa - - - -
1788445673 22.78° C 98% 1003.5 hPa - - - -
1788445373 22.78° C 95% 1003.5 hPa - - - -
1788445073 22.78° C 96% 1003.6 hPa - - - -
1788444773 22.78° C 97% 1003.6 hPa - - - -

* Rain since midnight (hover to see other rain measurements)
** Current wind speed in m/s (hover to see current wind gust speed)